When you browse on this site, cookies collect data to enhance your experience and personalize the content and advertising you see.
Visit our Privacy Policy to learn more. By continuing to use the site, you agree to this use of cookies and data.
  • In Germany
  • List of Countries
  • For 7 days
  • Water Temperature
  • Satellite Maps
  • Weather Map
  • Weather Widgets
  • user-avatar
    Login

    Hourly Weather La Massana

    Today, 20 May, Monday

    Time Temperature Precipitation Wind Pressure Humidity
    00:00 -1°C° 0 mm 2 mps 604 mmHg 90%
    01:00 -1°C° 0 mm 2 mps 604 mmHg 90%
    02:00 -1°C° 0 mm 2 mps 604 mmHg 91%
    03:00 -1°C° 0 mm 2 mps 604 mmHg 91%
    04:00 -1°C° 0 mm 2 mps 604 mmHg 89%
    05:00 +1°C° 0 mm 2 mps 605 mmHg 86%
    06:00 +1°C° 0 mm 2 mps 605 mmHg 84%
    07:00 +3°C° 0 mm 2 mps 606 mmHg 74%
    08:00 +5°C° 0 mm 2 mps 607 mmHg 65%
    09:00 +7°C° 0 mm 2 mps 608 mmHg 56%
    10:00 +8°C° 0.1 mm 2 mps 608 mmHg 56%
    11:00 +8°C° 0.1 mm 2 mps 608 mmHg 55%
    12:00 +9°C° 0.1 mm 2 mps 608 mmHg 54%
    13:00 +8°C° 0.4 mm 2 mps 608 mmHg 60%
    14:00 +8°C° 0.4 mm 1 mps 607 mmHg 67%
    15:00 +7°C° 0.4 mm 1 mps 607 mmHg 73%
    16:00 +7°C° 0.7 mm 1 mps 607 mmHg 78%
    17:00 +6°C° 0.7 mm 1 mps 607 mmHg 83%
    18:00 +6°C° 0.7 mm 1 mps 607 mmHg 88%
    19:00 +5°C° 0.5 mm 1 mps 607 mmHg 90%
    20:00 +5°C° 0.5 mm 1 mps 607 mmHg 93%
    21:00 +4°C° 0.5 mm 1 mps 607 mmHg 96%
    22:00 +4°C° 0.1 mm 1 mps 607 mmHg 96%
    23:00 +4°C° 0.1 mm 1 mps 607 mmHg 96%

    Tomorrow, 21 May, Tuesday

    Time Temperature Precipitation Wind Pressure Humidity
    00:00 +3°C° 0.1 mm 1 mps 607 mmHg 97%
    01:00 +3°C° 0 mm 1 mps 607 mmHg 96%
    02:00 +3°C° 0 mm 1 mps 607 mmHg 96%
    03:00 +2°C° 0 mm 1 mps 606 mmHg 95%
    04:00 +3°C° 0 mm 1 mps 607 mmHg 93%
    05:00 +4°C° 0 mm 1 mps 607 mmHg 92%
    06:00 +3°C° 0 mm 0 mps 608 mmHg 90%
    07:00 +6°C° 0.1 mm 1 mps 609 mmHg 83%
    08:00 +8°C° 0.1 mm 1 mps 610 mmHg 76%
    09:00 +9°C° 0.1 mm 1 mps 610 mmHg 68%
    10:00 +9°C° 0.2 mm 1 mps 610 mmHg 68%
    11:00 +10°C° 0.2 mm 1 mps 610 mmHg 67%
    12:00 +10°C° 0.2 mm 1 mps 611 mmHg 67%
    13:00 +10°C° 0.5 mm 1 mps 610 mmHg 68%
    14:00 +10°C° 0.5 mm 1 mps 610 mmHg 70%
    15:00 +9°C° 0.5 mm 1 mps 610 mmHg 71%
    16:00 +8°C° 0.7 mm 1 mps 609 mmHg 77%
    17:00 +8°C° 0.7 mm 1 mps 609 mmHg 82%
    18:00 +7°C° 0.7 mm 1 mps 609 mmHg 88%
    19:00 +6°C° 0.3 mm 1 mps 609 mmHg 89%
    20:00 +6°C° 0.3 mm 1 mps 609 mmHg 91%
    21:00 +5°C° 0.3 mm 1 mps 610 mmHg 93%
    22:00 +4°C° 0 mm 1 mps 609 mmHg 93%
    23:00 +4°C° 0 mm 1 mps 609 mmHg 94%

    Day after tomorrow, 22 May, Wednesday

    Time Temperature Precipitation Wind Pressure Humidity
    00:00 +3°C° 0 mm 1 mps 609 mmHg 94%
    01:00 +3°C° 0 mm 1 mps 609 mmHg 94%
    02:00 +3°C° 0 mm 1 mps 609 mmHg 94%
    03:00 +3°C° 0 mm 1 mps 609 mmHg 94%
    04:00 +3°C° 0 mm 1 mps 609 mmHg 92%
    05:00 +4°C° 0 mm 1 mps 610 mmHg 90%
    06:00 +5°C° 0 mm 1 mps 610 mmHg 88%
    07:00 +7°C° 0 mm 1 mps 611 mmHg 78%
    08:00 +10°C° 0 mm 1 mps 612 mmHg 67%
    09:00 +12°C° 0 mm 1 mps 614 mmHg 57%
    10:00 +13°C° 0 mm 1 mps 614 mmHg 53%
    11:00 +14°C° 0 mm 1 mps 614 mmHg 49%
    12:00 +15°C° 0 mm 1 mps 614 mmHg 45%
    13:00 +14°C° 0.2 mm 1 mps 614 mmHg 51%
    14:00 +13°C° 0.2 mm 1 mps 613 mmHg 57%
    15:00 +11°C° 0.2 mm 1 mps 612 mmHg 62%
    16:00 +11°C° 0.1 mm 1 mps 612 mmHg 67%
    17:00 +11°C° 0.1 mm 1 mps 612 mmHg 72%
    18:00 +10°C° 0.1 mm 1 mps 612 mmHg 76%
    19:00 +9°C° 0 mm 1 mps 611 mmHg 81%
    20:00 +7°C° 0 mm 1 mps 611 mmHg 86%
    21:00 +6°C° 0 mm 1 mps 611 mmHg 91%
    22:00 +6°C° 0 mm 1 mps 611 mmHg 90%
    23:00 +5°C° 0 mm 1 mps 610 mmHg 89%

    23 May, Thursday

    Time Temperature Precipitation Wind Pressure Humidity
    00:00 +5°C° 0 mm 1 mps 610 mmHg 89%
    01:00 +5°C° 0 mm 1 mps 610 mmHg 87%
    02:00 +5°C° 0 mm 1 mps 610 mmHg 84%
    03:00 +4°C° 0 mm 1 mps 609 mmHg 82%
    04:00 +5°C° 0 mm 1 mps 610 mmHg 79%
    05:00 +7°C° 0 mm 1 mps 611 mmHg 76%
    06:00 +8°C° 0 mm 1 mps 611 mmHg 72%
    07:00 +10°C° 0 mm 1 mps 612 mmHg 63%
    08:00 +13°C° 0 mm 1 mps 614 mmHg 54%
    09:00 +15°C° 0 mm 1 mps 615 mmHg 46%
    10:00 +16°C° 0 mm 1 mps 615 mmHg 43%
    11:00 +18°C° 0 mm 1 mps 615 mmHg 39%
    12:00 +19°C° 0 mm 1 mps 615 mmHg 36%
    13:00 +18°C° 0.1 mm 1 mps 614 mmHg 42%
    14:00 +15°C° 0.1 mm 1 mps 614 mmHg 48%
    15:00 +14°C° 0.1 mm 1 mps 613 mmHg 54%
    16:00 +13°C° 0.2 mm 1 mps 612 mmHg 62%
    17:00 +12°C° 0.2 mm 1 mps 612 mmHg 69%
    18:00 +11°C° 0.2 mm 1 mps 611 mmHg 77%
    19:00 +10°C° 0.6 mm 1 mps 612 mmHg 80%
    20:00 +9°C° 0.6 mm 1 mps 612 mmHg 84%
    21:00 +9°C° 0.6 mm 1 mps 612 mmHg 88%
    22:00 +8°C° 0 mm 1 mps 611 mmHg 88%
    23:00 +7°C° 0 mm 1 mps 611 mmHg 89%

    24 May, Friday

    Time Temperature Precipitation Wind Pressure Humidity
    00:00 +6°C° 0 mm 1 mps 611 mmHg 90%
    01:00 +7°C° 0 mm 1 mps 611 mmHg 90%
    02:00 +7°C° 0 mm 1 mps 610 mmHg 90%
    03:00 +7°C° 0 mm 1 mps 610 mmHg 90%
    04:00 +7°C° 0 mm 1 mps 611 mmHg 89%
    05:00 +8°C° 0 mm 1 mps 611 mmHg 89%
    06:00 +8°C° 0 mm 1 mps 611 mmHg 88%
    07:00 +9°C° 0.1 mm 1 mps 611 mmHg 85%
    08:00 +10°C° 0.1 mm 1 mps 612 mmHg 81%
    09:00 +11°C° 0.1 mm 1 mps 612 mmHg 78%
    10:00 +12°C° 0.2 mm 1 mps 612 mmHg 75%
    11:00 +12°C° 0.2 mm 2 mps 612 mmHg 73%
    12:00 +13°C° 0.2 mm 2 mps 612 mmHg 71%
    13:00 +12°C° 0.2 mm 2 mps 611 mmHg 72%
    14:00 +12°C° 0.2 mm 2 mps 611 mmHg 73%
    15:00 +11°C° 0.2 mm 3 mps 610 mmHg 75%
    16:00 +10°C° 0.2 mm 3 mps 610 mmHg 77%
    17:00 +9°C° 0.2 mm 2 mps 610 mmHg 79%
    18:00 +8°C° 0.2 mm 2 mps 609 mmHg 81%
    19:00 +7°C° 0.7 mm 2 mps 609 mmHg 84%
    20:00 +7°C° 0.7 mm 3 mps 609 mmHg 87%
    21:00 +5°C° 0.7 mm 3 mps 609 mmHg 90%
    22:00 +4°C° 0.2 mm 3 mps 609 mmHg 90%
    23:00 +4°C° 0.2 mm 3 mps 608 mmHg 90%

    25 May, Saturday

    Time Temperature Precipitation Wind Pressure Humidity
    00:00 +3°C° 0.2 mm 3 mps 608 mmHg 89%
    01:00 +2°C° 0 mm 3 mps 608 mmHg 89%
    02:00 +1°C° 0 mm 3 mps 607 mmHg 89%
    03:00 0°C° 0 mm 3 mps 607 mmHg 88%
    04:00 0°C° 0 mm 3 mps 607 mmHg 86%
    05:00 +1°C° 0 mm 3 mps 607 mmHg 83%
    06:00 0°C° 0 mm 4 mps 607 mmHg 80%
    07:00 +3°C° 0 mm 4 mps 608 mmHg 69%
    08:00 +5°C° 0 mm 5 mps 609 mmHg 59%
    09:00 +7°C° 0 mm 5 mps 610 mmHg 48%
    10:00 +8°C° 0 mm 6 mps 610 mmHg 47%
    11:00 +8°C° 0 mm 6 mps 611 mmHg 47%
    12:00 +9°C° 0 mm 7 mps 611 mmHg 46%
    13:00 +9°C° 0 mm 6 mps 611 mmHg 49%
    14:00 +9°C° 0 mm 6 mps 611 mmHg 52%
    15:00 +9°C° 0 mm 6 mps 611 mmHg 54%
    16:00 +8°C° 0 mm 5 mps 610 mmHg 62%
    17:00 +6°C° 0 mm 5 mps 610 mmHg 70%
    18:00 +5°C° 0 mm 4 mps 609 mmHg 78%
    19:00 +4°C° 0 mm 4 mps 609 mmHg 81%
    20:00 +4°C° 0 mm 4 mps 610 mmHg 84%
    21:00 +4°C° 0 mm 3 mps 610 mmHg 86%
    22:00 +3°C° 0 mm 3 mps 610 mmHg 87%
    23:00 +3°C° 0 mm 3 mps 610 mmHg 88%
    Show more